Home > Weather > Peterborough > Past weeks

Flag for United Kingdom Past Weather in Peterborough, England, United Kingdom — Yesterday and Last 2 Weeks

Now
46 °F

Fog.


Feels Like: 45 °F
Forecast: 46 / 65 °F
Wind: 3 mph from East

Location: Wittering

Current Time: May 27, 2016 at 7:48:41 AM

Latest Report: May 27, 2016 at 6:59 AM


Visibility: 0 mi

Pressure: 30.07 "Hg

Humidity: 100%

Dew Point: 46 °F

Location of PeterboroughLocation

Past Weather in Peterborough — Graph

°F

Peterborough Temperature Yesterday

Maximum temperature yesterday: 59 °F (at 3:50 PM)
Minimum temperature yesterday: 48 °F (at 12:50 AM)
Average temperature yesterday: 52 °F

High & Low Weather Summary for the Past Weeks

 TemperatureHumidityPressure
High66 °F (May 12, 1:50 PM)100% (May 16, 6:50 AM)30.21 "Hg (May 16, 6:50 AM)
Low36 °F (May 15, 5:50 AM)41% (May 15, 1:50 PM)29.56 "Hg (May 18, 2:50 PM)
Average53 °F79%29.94 "Hg
* Reported May 12 5:50 AM — May 27 5:50 AM, Peterborough, Weather by CustomWeather, © 2016

Note: Actual official high and low records may vary slightly from our data, if they occured in-between our weather recording intervals... More about our weather records

Advertising

Peterborough Weather History for the Previous 24 Hours

Scroll right to see more
 ConditionsComfort  
Time TempWeatherWind HumidityBarometerVisibility
5:50 AM
Fri, May 27
46 °FFog.2 mph100%30.04 "Hg0 mi
4:50 AM43 °FFog.5 mph93%30.04 "Hg5 mi
3:50 AM45 °FFog.5 mph100%30.04 "Hg4 mi
2:50 AM46 °FHaze.3 mph93%30.04 "Hg6 mi
1:50 AM48 °FCool.3 mph94%30.04 "HgN/A
12:50 AM50 °FPassing clouds.5 mph88%30.04 "HgN/A
11:50 PM
Thu, May 26
50 °FPassing clouds.6 mph94%30.04 "HgN/A
10:50 PM50 °FPassing clouds.6 mph88%30.04 "HgN/A
9:50 PM54 °FPassing clouds.6 mph77%30.04 "HgN/A
8:50 PM55 °FCool.6 mph72%30.01 "HgN/A
7:50 PM57 °FCool.7 mph67%30.01 "HgN/A
6:50 PM59 °FCool.6 mph68%30.01 "HgN/A
5:50 PM59 °FPassing clouds.5 mph68%30.01 "HgN/A
4:50 PM59 °FScattered clouds.3 mph63%30.01 "HgN/A
3:50 PM59 °FBroken clouds.2 mph68%30.01 "HgN/A
2:50 PM55 °FBroken clouds.1 mph77%30.01 "HgN/A
1:50 PM54 °FPartly sunny.2 mph77%30.01 "HgN/A
12:50 PM54 °FPartly sunny.3 mph77%30.01 "HgN/A
11:50 AM54 °FPartly sunny.6 mph77%30.01 "HgN/A
10:50 AM52 °FPartly sunny.5 mph82%30.01 "HgN/A
9:50 AM52 °FOvercast.7 mph82%30.01 "HgN/A
8:50 AM50 °FOvercast.8 mph88%30.01 "HgN/A
7:50 AM48 °FOvercast.6 mph94%30.01 "HgN/A
Weather by CustomWeather, © 2016

See weather overviewHow to use our weather pages